• In United Kingdom
  • List of Countries
  • For 7 days
  • Water Temperature
  • Satellite Maps
  • Weather Map
  • Weather Widgets
  • user-avatar
    Login

    Hourly Weather Banfora

    Today, 22 September, Saturday

    Time Temperature Precipitation Wind Pressure Humidity
    00:00 +26°C° 0.4 mm 1 mps 733 mmHg 87%
    01:00 +26°C° 2.4 mm 1 mps 733 mmHg 89%
    02:00 +26°C° 2.4 mm 1 mps 732 mmHg 91%
    03:00 +25°C° 2.4 mm 1 mps 732 mmHg 93%
    04:00 +25°C° 0.4 mm 1 mps 732 mmHg 93%
    05:00 +25°C° 0.4 mm 1 mps 732 mmHg 92%
    06:00 +25°C° 0.4 mm 2 mps 732 mmHg 92%
    07:00 +26°C° 0 mm 2 mps 733 mmHg 89%
    08:00 +27°C° 0 mm 2 mps 733 mmHg 86%
    09:00 +28°C° 0 mm 2 mps 734 mmHg 83%
    10:00 +30°C° 0.2 mm 2 mps 734 mmHg 75%
    11:00 +31°C° 0.2 mm 1 mps 734 mmHg 67%
    12:00 +33°C° 0.2 mm 1 mps 733 mmHg 59%
    13:00 +34°C° 0.4 mm 1 mps 733 mmHg 57%
    14:00 +32°C° 0.4 mm 0 mps 732 mmHg 56%
    15:00 +33°C° 0.4 mm 0 mps 731 mmHg 55%
    16:00 +31°C° 0 mm 0 mps 731 mmHg 59%
    17:00 +30°C° 0 mm 0 mps 731 mmHg 63%
    18:00 +29°C° 0 mm 0 mps 731 mmHg 68%
    19:00 +28°C° 0 mm 0 mps 732 mmHg 69%
    20:00 +27°C° 0 mm 0 mps 732 mmHg 71%
    21:00 +27°C° 0 mm 0 mps 733 mmHg 72%
    22:00 +26°C° 1.2 mm 0 mps 733 mmHg 78%
    23:00 +27°C° 1.2 mm 1 mps 732 mmHg 84%

    Tomorrow, 23 September, Sunday

    Time Temperature Precipitation Wind Pressure Humidity
    00:00 +26°C° 1.2 mm 1 mps 732 mmHg 89%
    01:00 +26°C° 0.8 mm 1 mps 732 mmHg 91%
    02:00 +25°C° 0.8 mm 1 mps 732 mmHg 93%
    03:00 +25°C° 0.8 mm 1 mps 732 mmHg 95%
    04:00 +25°C° 2.1 mm 1 mps 732 mmHg 95%
    05:00 +25°C° 2.1 mm 1 mps 733 mmHg 96%
    06:00 +25°C° 2.1 mm 1 mps 733 mmHg 96%
    07:00 +26°C° 1.4 mm 1 mps 734 mmHg 92%
    08:00 +27°C° 1.4 mm 1 mps 734 mmHg 87%
    09:00 +28°C° 1.4 mm 1 mps 735 mmHg 83%
    10:00 +28°C° 0.2 mm 0 mps 734 mmHg 76%
    11:00 +29°C° 0.2 mm 0 mps 734 mmHg 69%
    12:00 +30°C° 0.2 mm 0 mps 734 mmHg 62%
    13:00 +32°C° 0.6 mm 1 mps 733 mmHg 63%
    14:00 +32°C° 0.6 mm 2 mps 733 mmHg 64%
    15:00 +33°C° 0.6 mm 3 mps 732 mmHg 65%
    16:00 +31°C° 0.2 mm 2 mps 732 mmHg 72%
    17:00 +29°C° 0.2 mm 2 mps 732 mmHg 78%
    18:00 +28°C° 0.2 mm 1 mps 732 mmHg 85%
    19:00 +27°C° 0 mm 1 mps 732 mmHg 84%
    20:00 +27°C° 0 mm 1 mps 733 mmHg 83%
    21:00 +25°C° 0 mm 0 mps 733 mmHg 83%
    22:00 +26°C° 0.1 mm 1 mps 734 mmHg 83%
    23:00 +26°C° 0.1 mm 1 mps 734 mmHg 82%

    Day after tomorrow, 24 September, Monday

    Time Temperature Precipitation Wind Pressure Humidity
    00:00 +26°C° 0.1 mm 1 mps 734 mmHg 82%
    01:00 +26°C° 0 mm 1 mps 733 mmHg 83%
    02:00 +26°C° 0 mm 1 mps 733 mmHg 83%
    03:00 +23°C° 0 mm 0 mps 732 mmHg 84%
    04:00 +25°C° 0 mm 1 mps 733 mmHg 84%
    05:00 +25°C° 0 mm 1 mps 733 mmHg 85%
    06:00 +25°C° 0 mm 1 mps 733 mmHg 85%
    07:00 +26°C° 0 mm 1 mps 734 mmHg 85%
    08:00 +26°C° 0 mm 1 mps 735 mmHg 84%
    09:00 +27°C° 0 mm 2 mps 735 mmHg 83%
    10:00 +27°C° 0 mm 2 mps 735 mmHg 82%
    11:00 +27°C° 0 mm 1 mps 735 mmHg 81%
    12:00 +28°C° 0 mm 1 mps 734 mmHg 80%
    13:00 +28°C° 0 mm 1 mps 734 mmHg 78%
    14:00 +28°C° 0 mm 1 mps 733 mmHg 76%
    15:00 +29°C° 0 mm 1 mps 732 mmHg 75%
    16:00 +28°C° 0 mm 1 mps 732 mmHg 77%
    17:00 +28°C° 0 mm 1 mps 732 mmHg 80%
    18:00 +25°C° 0 mm 0 mps 732 mmHg 82%
    19:00 +25°C° 0 mm 0 mps 733 mmHg 84%
    20:00 +24°C° 0 mm 0 mps 733 mmHg 85%
    21:00 +24°C° 0 mm 0 mps 734 mmHg 86%
    22:00 +23°C° 0 mm 0 mps 734 mmHg 87%
    23:00 +23°C° 0 mm 0 mps 734 mmHg 87%

    25 September, Tuesday

    Time Temperature Precipitation Wind Pressure Humidity
    00:00 +23°C° 0 mm 0 mps 734 mmHg 88%
    01:00 +25°C° 0 mm 1 mps 733 mmHg 89%
    02:00 +25°C° 0 mm 1 mps 733 mmHg 90%
    03:00 +24°C° 0 mm 1 mps 732 mmHg 91%
    04:00 +24°C° 0 mm 1 mps 732 mmHg 92%
    05:00 +24°C° 0 mm 2 mps 732 mmHg 92%
    06:00 +24°C° 0 mm 2 mps 733 mmHg 93%
    07:00 +26°C° 0 mm 2 mps 733 mmHg 87%
    08:00 +27°C° 0 mm 2 mps 734 mmHg 81%
    09:00 +29°C° 0 mm 2 mps 734 mmHg 75%
    10:00 +31°C° 0.9 mm 1 mps 734 mmHg 71%
    11:00 +32°C° 0.9 mm 1 mps 734 mmHg 67%
    12:00 +34°C° 0.9 mm 1 mps 734 mmHg 63%
    13:00 +34°C° 0.3 mm 1 mps 733 mmHg 61%
    14:00 +34°C° 0.3 mm 1 mps 732 mmHg 60%
    15:00 +35°C° 0.3 mm 2 mps 731 mmHg 58%
    16:00 +34°C° 0 mm 2 mps 731 mmHg 63%
    17:00 +32°C° 0 mm 1 mps 731 mmHg 69%
    18:00 +30°C° 0 mm 1 mps 731 mmHg 74%
    19:00 +30°C° 0.5 mm 1 mps 732 mmHg 76%
    20:00 +29°C° 0.5 mm 1 mps 733 mmHg 79%
    21:00 +28°C° 0.5 mm 1 mps 733 mmHg 81%
    22:00 +27°C° 1 mm 1 mps 733 mmHg 84%
    23:00 +27°C° 1 mm 1 mps 733 mmHg 87%

    26 September, Wednesday

    Time Temperature Precipitation Wind Pressure Humidity
    00:00 +26°C° 1 mm 2 mps 733 mmHg 91%
    01:00 +26°C° 0.1 mm 2 mps 732 mmHg 91%
    02:00 +26°C° 0.1 mm 1 mps 732 mmHg 92%
    03:00 +26°C° 0.1 mm 1 mps 731 mmHg 92%
    04:00 +26°C° 0.3 mm 1 mps 731 mmHg 93%
    05:00 +25°C° 0.3 mm 1 mps 732 mmHg 93%
    06:00 +25°C° 0.3 mm 2 mps 732 mmHg 93%
    07:00 +26°C° 0.1 mm 2 mps 733 mmHg 90%
    08:00 +27°C° 0.1 mm 2 mps 733 mmHg 86%
    09:00 +28°C° 0.1 mm 2 mps 734 mmHg 83%
    10:00 +30°C° 0 mm 2 mps 733 mmHg 76%
    11:00 +32°C° 0 mm 2 mps 733 mmHg 69%
    12:00 +34°C° 0 mm 2 mps 732 mmHg 62%
    13:00 +35°C° 0 mm 2 mps 731 mmHg 59%
    14:00 +35°C° 0 mm 2 mps 731 mmHg 57%
    15:00 +35°C° 0 mm 1 mps 730 mmHg 54%
    16:00 +34°C° 0.1 mm 1 mps 730 mmHg 60%
    17:00 +32°C° 0.1 mm 1 mps 730 mmHg 66%
    18:00 +31°C° 0.1 mm 1 mps 730 mmHg 72%
    19:00 +30°C° 1.3 mm 1 mps 731 mmHg 77%
    20:00 +29°C° 1.3 mm 1 mps 732 mmHg 82%
    21:00 +27°C° 1.3 mm 1 mps 732 mmHg 88%
    22:00 +27°C° 0.7 mm 1 mps 732 mmHg 88%
    23:00 +27°C° 0.7 mm 1 mps 732 mmHg 89%

    27 September, Thursday

    Time Temperature Precipitation Wind Pressure Humidity
    00:00 +27°C° 0.7 mm 1 mps 732 mmHg 89%
    01:00 +26°C° 0 mm 1 mps 732 mmHg 90%
    02:00 +26°C° 0 mm 1 mps 732 mmHg 91%
    03:00 +26°C° 0 mm 1 mps 731 mmHg 92%
    04:00 +26°C° 0 mm 1 mps 732 mmHg 92%
    05:00 +25°C° 0 mm 1 mps 732 mmHg 92%
    06:00 +25°C° 0 mm 1 mps 732 mmHg 93%
    07:00 +26°C° 0 mm 2 mps 733 mmHg 90%
    08:00 +27°C° 0 mm 2 mps 733 mmHg 86%
    09:00 +28°C° 0 mm 3 mps 734 mmHg 83%
    10:00 +29°C° 0 mm 2 mps 733 mmHg 77%
    11:00 +31°C° 0 mm 2 mps 733 mmHg 71%
    12:00 +32°C° 0 mm 2 mps 733 mmHg 65%
    13:00 +32°C° 0 mm 2 mps 732 mmHg 63%
    14:00 +34°C° 0 mm 2 mps 732 mmHg 62%
    15:00 +34°C° 0 mm 2 mps 731 mmHg 60%
    16:00 +32°C° 0 mm 1 mps 731 mmHg 65%
    17:00 +31°C° 0 mm 1 mps 732 mmHg 71%
    18:00 +30°C° 0 mm 1 mps 732 mmHg 76%
    19:00 +29°C° 0 mm 1 mps 732 mmHg 78%
    20:00 +28°C° 0 mm 1 mps 733 mmHg 80%
    21:00 +28°C° 0 mm 1 mps 733 mmHg 82%
    22:00 +27°C° 0.4 mm 1 mps 733 mmHg 83%
    23:00 +27°C° 0.4 mm 1 mps 733 mmHg 85%
    Show more